Hourly Weather Sudol

Today, 17 January, Sunday

Time Temperature Precipitation Wind Pressure Humidity
00:00 -11°C° 0.1 mm 4 mps 741 mmHg 92%
01:00 -12°C° 0 mm 3 mps 741 mmHg 94%
02:00 -13°C° 0 mm 3 mps 742 mmHg 94%
03:00 -14°C° 0 mm 3 mps 742 mmHg 93%
04:00 -16°C° 0 mm 3 mps 742 mmHg 93%
05:00 -16°C° 0 mm 3 mps 743 mmHg 93%
06:00 -16°C° 0 mm 3 mps 743 mmHg 93%
07:00 -16°C° 0 mm 3 mps 744 mmHg 94%
08:00 -16°C° 0 mm 3 mps 744 mmHg 92%
09:00 -14°C° 0 mm 2 mps 745 mmHg 90%
10:00 -14°C° 0 mm 2 mps 746 mmHg 89%
11:00 -13°C° 0 mm 2 mps 746 mmHg 86%
12:00 -12°C° 0 mm 2 mps 746 mmHg 84%
13:00 -12°C° 0 mm 2 mps 746 mmHg 82%
14:00 -12°C° 0 mm 2 mps 747 mmHg 84%
15:00 -12°C° 0 mm 2 mps 747 mmHg 87%
16:00 -14°C° 0 mm 3 mps 747 mmHg 90%
17:00 -13°C° 0 mm 2 mps 747 mmHg 91%
18:00 -14°C° 0 mm 2 mps 748 mmHg 92%
19:00 -12°C° 0 mm 1 mps 748 mmHg 93%
20:00 -12°C° 0 mm 1 mps 748 mmHg 93%
21:00 -12°C° 0 mm 1 mps 748 mmHg 92%
22:00 -15°C° 0 mm 2 mps 749 mmHg 92%
23:00 -15°C° 0 mm 2 mps 748 mmHg 92%

Tomorrow, 18 January, Monday

Time Temperature Precipitation Wind Pressure Humidity
00:00 -15°C° 0 mm 2 mps 748 mmHg 92%
01:00 -15°C° 0 mm 2 mps 748 mmHg 92%
02:00 -15°C° 0 mm 2 mps 748 mmHg 92%
03:00 -13°C° 0 mm 1 mps 748 mmHg 93%
04:00 -13°C° 0 mm 1 mps 748 mmHg 93%
05:00 -13°C° 0 mm 1 mps 748 mmHg 93%
06:00 -14°C° 0 mm 0 mps 748 mmHg 94%
07:00 -14°C° 0 mm 0 mps 748 mmHg 94%
08:00 -13°C° 0 mm 0 mps 748 mmHg 90%
09:00 -12°C° 0 mm 1 mps 748 mmHg 87%
10:00 -11°C° 0 mm 1 mps 748 mmHg 83%
11:00 -10°C° 0 mm 1 mps 748 mmHg 81%
12:00 -9°C° 0 mm 1 mps 748 mmHg 78%
13:00 -8°C° 0 mm 1 mps 748 mmHg 75%
14:00 -9°C° 0 mm 1 mps 747 mmHg 79%
15:00 -9°C° 0 mm 1 mps 747 mmHg 82%
16:00 -10°C° 0 mm 1 mps 747 mmHg 86%
17:00 -10°C° 0 mm 1 mps 747 mmHg 87%
18:00 -10°C° 0 mm 1 mps 747 mmHg 88%
19:00 -12°C° 0 mm 2 mps 747 mmHg 89%
20:00 -12°C° 0 mm 2 mps 747 mmHg 88%
21:00 -12°C° 0 mm 2 mps 747 mmHg 88%
22:00 -12°C° 0 mm 2 mps 746 mmHg 87%
23:00 -10°C° 0 mm 2 mps 746 mmHg 88%

Day after tomorrow, 19 January, Tuesday

Time Temperature Precipitation Wind Pressure Humidity
00:00 -10°C° 0 mm 2 mps 746 mmHg 89%
01:00 -10°C° 0 mm 3 mps 746 mmHg 90%
02:00 -10°C° 0.1 mm 3 mps 745 mmHg 91%
03:00 -9°C° 0.1 mm 3 mps 745 mmHg 93%
04:00 -8°C° 0.1 mm 3 mps 744 mmHg 94%
05:00 -8°C° 0.2 mm 3 mps 744 mmHg 94%
06:00 -7°C° 0.2 mm 3 mps 744 mmHg 95%
07:00 -6°C° 0.2 mm 3 mps 744 mmHg 95%
08:00 -5°C° 0.1 mm 4 mps 743 mmHg 94%
09:00 -4°C° 0.1 mm 4 mps 743 mmHg 94%
10:00 -3°C° 0.1 mm 4 mps 743 mmHg 93%
11:00 -3°C° 0.2 mm 4 mps 743 mmHg 94%
12:00 -2°C° 0.2 mm 4 mps 743 mmHg 94%
13:00 -2°C° 0.2 mm 4 mps 742 mmHg 95%
14:00 -2°C° 0.2 mm 4 mps 742 mmHg 95%
15:00 -1°C° 0.2 mm 3 mps 742 mmHg 96%
16:00 -1°C° 0.2 mm 3 mps 741 mmHg 97%
17:00 -2°C° 0.1 mm 3 mps 741 mmHg 96%
18:00 -3°C° 0.1 mm 4 mps 742 mmHg 95%
19:00 -4°C° 0.1 mm 4 mps 742 mmHg 94%
20:00 -4°C° 0 mm 4 mps 741 mmHg 94%
21:00 -5°C° 0 mm 4 mps 741 mmHg 93%
22:00 -7°C° 0 mm 4 mps 741 mmHg 93%
23:00 -5°C° 0.2 mm 4 mps 741 mmHg 94%

20 January, Wednesday

Time Temperature Precipitation Wind Pressure Humidity
00:00 -6°C° 0.2 mm 5 mps 740 mmHg 94%
01:00 -6°C° 0.2 mm 5 mps 740 mmHg 95%
02:00 -6°C° 0.3 mm 5 mps 740 mmHg 95%
03:00 -5°C° 0.3 mm 4 mps 740 mmHg 95%
04:00 -4°C° 0.3 mm 4 mps 739 mmHg 96%
05:00 -4°C° 0.4 mm 4 mps 739 mmHg 96%
06:00 -3°C° 0.4 mm 4 mps 739 mmHg 96%
07:00 -2°C° 0.4 mm 4 mps 739 mmHg 96%
08:00 -2°C° 0.2 mm 4 mps 740 mmHg 97%
09:00 -1°C° 0.2 mm 4 mps 740 mmHg 97%
10:00 0°C° 0.2 mm 4 mps 740 mmHg 98%
11:00 0°C° 0.1 mm 4 mps 740 mmHg 98%
12:00 0°C° 0.1 mm 4 mps 740 mmHg 98%
13:00 0°C° 0.1 mm 4 mps 740 mmHg 98%
14:00 0°C° 0 mm 4 mps 740 mmHg 97%
15:00 0°C° 0 mm 4 mps 740 mmHg 97%
16:00 0°C° 0 mm 4 mps 740 mmHg 96%
17:00 -1°C° 0 mm 4 mps 740 mmHg 95%
18:00 -1°C° 0 mm 4 mps 740 mmHg 94%
19:00 -1°C° 0 mm 4 mps 740 mmHg 93%
20:00 -1°C° 0 mm 5 mps 740 mmHg 91%
21:00 -1°C° 0 mm 5 mps 740 mmHg 89%
22:00 -1°C° 0 mm 5 mps 740 mmHg 87%
23:00 -1°C° 0 mm 5 mps 740 mmHg 87%

21 January, Thursday

Time Temperature Precipitation Wind Pressure Humidity
00:00 -1°C° 0 mm 5 mps 740 mmHg 87%
01:00 -2°C° 0 mm 5 mps 739 mmHg 87%
02:00 -1°C° 0 mm 5 mps 739 mmHg 87%
03:00 -1°C° 0 mm 5 mps 739 mmHg 87%
04:00 -1°C° 0 mm 5 mps 739 mmHg 87%
05:00 -1°C° 0 mm 4 mps 739 mmHg 87%
06:00 -1°C° 0 mm 4 mps 739 mmHg 87%
07:00 -1°C° 0 mm 4 mps 739 mmHg 87%
08:00 +1°C° 0 mm 3 mps 738 mmHg 89%
09:00 +1°C° 0 mm 3 mps 738 mmHg 91%
10:00 +1°C° 0 mm 3 mps 738 mmHg 92%
11:00 +2°C° 0 mm 3 mps 738 mmHg 93%
12:00 +2°C° 0 mm 3 mps 737 mmHg 94%
13:00 +3°C° 0 mm 3 mps 737 mmHg 96%
14:00 +2°C° 0 mm 3 mps 737 mmHg 94%
15:00 +1°C° 0 mm 4 mps 737 mmHg 92%
16:00 +1°C° 0 mm 4 mps 736 mmHg 90%
17:00 +1°C° 0 mm 4 mps 737 mmHg 90%
18:00 +1°C° 0 mm 4 mps 737 mmHg 90%
19:00 +1°C° 0 mm 4 mps 737 mmHg 89%
20:00 0°C° 0 mm 4 mps 737 mmHg 89%
21:00 0°C° 0 mm 4 mps 737 mmHg 88%
22:00 -1°C° 0 mm 4 mps 737 mmHg 88%
23:00 0°C° 0 mm 3 mps 737 mmHg 88%

22 January, Friday

Time Temperature Precipitation Wind Pressure Humidity
00:00 0°C° 0 mm 3 mps 737 mmHg 88%
01:00 0°C° 0 mm 3 mps 738 mmHg 89%
02:00 0°C° 0 mm 3 mps 737 mmHg 89%
03:00 0°C° 0 mm 3 mps 737 mmHg 90%
04:00 0°C° 0 mm 3 mps 737 mmHg 90%
05:00 0°C° 0 mm 3 mps 737 mmHg 90%
06:00 0°C° 0 mm 3 mps 737 mmHg 91%
07:00 0°C° 0 mm 3 mps 736 mmHg 91%
08:00 0°C° 0 mm 4 mps 736 mmHg 91%
09:00 +1°C° 0 mm 5 mps 736 mmHg 91%
10:00 +2°C° 0 mm 6 mps 735 mmHg 91%
11:00 +2°C° 0 mm 7 mps 735 mmHg 88%
12:00 +3°C° 0 mm 7 mps 734 mmHg 86%
13:00 +2°C° 0 mm 8 mps 733 mmHg 84%
14:00 +2°C° 0 mm 8 mps 733 mmHg 83%
15:00 +2°C° 0 mm 8 mps 732 mmHg 83%
16:00 +2°C° 0 mm 8 mps 732 mmHg 83%
17:00 +2°C° 0.1 mm 8 mps 732 mmHg 85%
18:00 +3°C° 0.1 mm 7 mps 731 mmHg 86%
19:00 +3°C° 0.1 mm 7 mps 731 mmHg 87%
20:00 +2°C° 0.1 mm 6 mps 731 mmHg 88%
21:00 +2°C° 0.1 mm 6 mps 731 mmHg 88%
22:00 +2°C° 0.1 mm 5 mps 731 mmHg 89%
23:00 +2°C° 0 mm 5 mps 731 mmHg 90%
Show more